{"data":{"norad_id":60510,"epoch":"2026-09-21T18:44:40.199712Z","epoch_age_seconds":178415,"freshness":"STALE","line1":"1 60510U 24149AU  26264.78102083  .00011568  00000+0  26699-3 0  9996","line2":"2 60510  97.3676 349.4171 0002239 312.1844  47.9213 15.42704725117192","mean_motion":15.42704725,"eccentricity":0.0002239,"inclination_deg":97.3676,"raan_deg":349.4171,"arg_perigee_deg":312.1844,"mean_anomaly_deg":47.9213,"bstar":0.00026699,"rev_number":11719,"period_min":93.342554583801,"perigee_km":436.60448158367,"apogee_km":439.65680623461,"semimajor_km":6816.2676439091,"source":"CELESTRAK","updated_at":"2026-09-23T09:00:20.661155Z"}}